Wind_Speed
35 16 21 43 25 30 30 30 33 28 22 27 25 30 24 22 26 23 24 29 30 29 33 30 26 29 28 32 37 38 44 46 42 39 41 43 40 42 49 48 48 48 46 49
14 31 49 24 26 30 30 33 40 28 24 23 24 32 25 23 23 28 30 32 33 37 35 32 31 27 34 36 32 34 37 48 46 42 40 42 41 39 40 48 50 50 47 48
30 26 32 28 28 30 31 34 33 30 20 24 21 34 27 26 30 34 39 43 38 40 33 33 31 35 24 38 38 34 37 44 48 44 41 40 38 37 38 41 41 43 47 47
27 39 32 30 29 31 28 34 31 27 19 18 15 22 20 17 21 22 23 29 34 34 38 33 29 33 35 23 32 35 31 31 43 45 44 44 46 44 43 45 46 45 46 47
15 9 23 33 29 29 27 22 27 28 24 18 18 9 28 10 16 17 15 25 10 21 33 31 21 35 31 29 25 27 35 35 31 43 43 44 44 46 41 44 44 44 45 46
36 34 24 24 27 26 18 20 22 20 17 14 28 17 33 14 19 20 19 10 17 17 17 18 15 16 13 8 5 10 17 27 34 35 35 42 42 40 43 46 43 45 46 47
34 37 35 26 25 27 25 25 9 8 12 15 21 15 24 10 13 11 5 19 18 19 20 18 16 14 12 9 5 1 8 22 29 33 31 41 46 48 49 48 49 48 48 47
16 18 28 30 36 22 19 22 7 6 4 10 21 10 17 11 9 15 22 20 18 19 20 19 15 13 10 9 6 2 1 5 15 24 29 30 37 41 45 45 44 51 51 50
7 1 8 9 7 21 35 24 22 21 8 4 3 4 3 9 13 16 19 20 20 20 20 17 14 14 12 13 8 6 1 7 3 7 10 19 29 34 37 37 40 42 46 46
4 6 4 6 8 5 7 10 12 10 7 13 10 16 5 14 15 15 14 17 21 19 18 14 13 12 11 9 9 7 7 7 5 4 2 2 10 15 25 32 33 39 41 43
1 4 2 4 2 2 5 3 2 2 2 8 3 2 8 13 13 14 12 15 15 14 15 15 14 14 12 10 10 8 6 4 3 4 5 5 9 15 17 14 15 32 36 40
3 3 4 12 4 4 3 4 1 4 4 5 2 2 4 11 11 11 9 6 6 5 5 4 6 6 5 5 5 8 12 12 9 6 5 9 13 14 18 22 23 15 19 32
8 5 4 3 4 3 3 3 3 3 2 3 1 2 6 7 10 9 11 12 7 6 5 4 7 10 9 9 10 8 6 7 12 13 11 9 8 11 12 18 23 27 26 23
6 3 5 6 8 6 3 4 5 2 2 4 2 6 5 9 7 7 6 8 9 7 5 3 3 5 6 9 11 16 15 13 12 12 14 14 14 13 16 17 17 17 24 27
7 3 7 9 10 10 13 2 4 3 2 3 5 3 9 8 12 14 17 14 13 9 7 5 4 5 5 9 10 8 12 14 18 16 16 16 15 14 15 21 23 19 20 21
4 5 13 12 6 7 6 14 9 6 5 3 4 6 10 17 23 20 17 14 9 5 3 2 4 6 7 10 9 8 12 10 16 15 18 18 19 17 13 16 24 25 21 20
7 6 9 10 8 8 7 6 11 11 6 7 7 7 3 5 7 5 8 10 7 3 2 1 4 7 10 12 15 12 15 14 18 20 16 19 19 19 21 22 25 27 23 22
6 6 6 9 12 9 12 6 5 2 2 6 7 7 6 9 11 8 8 7 4 3 1 2 6 12 14 15 15 17 19 15 20 22 21 20 21 22 20 23 23 25 27 24
14 11 6 6 9 12 11 7 3 3 12 16 8 15 11 8 4 6 7 9 7 5 7 11 14 16 16 18 16 21 22 22 22 21 22 24 24 24 22 22 25 23 27 27
5 10 8 8 6 6 8 7 8 5 6 12 13 14 14 12 11 5 13 13 12 12 14 18 19 20 21 21 22 24 26 26 27 26 26 25 26 24 26 26 29 29 26 27
3 4 9 8 7 5 5 5 12 4 2 5 10 13 13 9 10 11 12 15 17 19 21 21 23 25 26 27 27 29 29 31 31 29 27 27 27 28 27 30 30 28 28 25
2 2 3 6 7 8 9 3 4 3 6 8 9 12 12 13 15 16 18 20 23 24 25 25 26 27 28 28 29 33 34 33 33 32 31 30 33 33 30 32 31 31 28 24
2 4 2 3 0 7 4 7 5 9 7 10 11 11 12 14 15 17 20 23 25 24 25 25 27 30 31 30 29 32 34 33 34 33 33 33 32 32 35 35 34 31 29 26
6 11 1 2 6 5 7 4 5 6 9 12 13 14 15 17 17 19 20 18 22 23 25 25 27 28 32 33 36 39 39 33 31 36 39 37 36 31 33 34 34 27 28 27
1 4 5 3 4 6 16 11 7 10 10 12 14 14 15 17 19 19 21 20 21 23 26 24 26 33 39 38 42 46 47 47 41 40 30 38 40 33 35 33 33 27 26 25
6 8 5 3 5 8 10 11 9 10 12 13 15 16 15 17 20 21 22 20 21 24 29 31 32 37 40 41 41 40 41 42 44 47 48 33 32 34 33 31 30 28 26 23
Wind_Direction
228 218 210 224 215 238 240 247 251 247 241 239 243 259 252 254 260 259 254 264 264 253 242 236 239 218 218 219 224 217 206 204 212 211 203 208 213 210 215 217 218 218 215 210
231 219 226 212 213 223 231 241 252 264 260 260 270 272 272 274 271 272 263 254 250 253 249 235 225 224 214 218 223 220 209 206 209 218 215 207 211 215 214 220 220 220 219 214
229 232 237 225 216 219 227 232 244 251 261 266 277 277 264 257 259 254 256 258 250 254 247 239 235 211 222 210 212 220 218 208 210 215 214 210 211 212 213 218 225 221 220 219
232 245 228 221 225 214 229 223 239 245 240 248 228 269 256 261 255 245 244 261 237 234 242 244 228 207 208 210 208 211 212 213 210 212 207 207 208 208 212 215 225 228 224 220
236 296 240 227 225 222 230 220 225 232 237 247 233 250 271 245 247 251 238 242 233 222 217 211 220 210 202 208 205 207 212 217 214 209 207 207 205 211 210 216 221 226 225 226
240 248 237 259 250 243 260 259 262 260 250 243 238 223 272 242 250 248 255 120 93 87 88 98 100 115 130 150 207 240 227 223 225 226 219 215 220 208 206 217 225 228 230 224
236 237 235 228 244 253 236 234 236 237 222 233 234 217 243 252 277 326 129 107 96 90 92 88 93 101 109 113 104 48 276 245 228 227 236 226 223 221 225 227 230 230 230 229
230 235 232 225 229 232 219 235 220 243 214 233 234 215 232 225 327 241 113 104 106 99 91 91 90 93 88 82 75 100 272 252 248 231 241 238 225 229 229 229 234 234 234 234
1 263 341 14 299 244 240 240 234 241 256 270 243 228 101 102 68 91 109 117 104 95 85 81 80 79 89 61 51 54 32 358 340 214 242 231 235 231 235 232 233 238 236 235
4 318 4 343 8 3 262 257 229 219 233 228 208 226 167 135 109 89 75 71 67 74 91 80 76 65 64 68 45 43 41 12 22 344 5 333 245 225 236 234 235 235 238 240
261 189 300 276 70 53 346 14 271 114 234 231 258 112 302 94 92 87 66 73 71 69 52 48 53 55 53 43 43 19 22 26 330 288 253 273 260 257 247 240 235 233 236 239
15 230 286 317 173 170 168 158 139 295 76 46 352 60 10 88 97 82 90 48 56 32 38 22 23 5 9 13 31 33 13 354 335 334 301 268 261 269 258 261 251 245 241 236
343 16 316 273 157 149 250 169 124 85 40 134 16 90 154 135 135 136 153 181 185 250 270 298 326 309 299 297 306 330 351 344 331 329 314 306 303 296 265 264 255 252 255 252
356 13 350 342 351 310 321 67 113 46 196 128 84 122 184 169 174 185 223 231 206 195 232 229 258 307 333 323 330 329 319 308 306 321 320 313 298 296 302 294 285 267 257 259
15 324 347 327 318 325 320 314 155 158 90 25 47 94 176 179 193 197 214 212 203 188 210 199 275 293 289 305 329 342 318 334 320 318 302 303 302 285 287 296 294 284 272 269
42 342 321 315 296 308 322 293 262 206 185 224 189 239 167 197 205 213 207 208 176 212 251 281 271 287 294 297 296 304 304 331 314 319 308 308 296 295 279 290 290 286 279 277
321 325 326 295 335 339 286 257 250 272 241 209 224 241 274 190 250 282 200 165 160 230 289 232 294 300 302 299 298 300 302 302 301 301 301 312 306 291 284 281 281 285 282 274
244 249 276 286 295 267 279 184 311 274 301 316 324 352 125 95 78 101 107 147 187 160 246 273 285 288 287 286 282 294 298 299 293 299 301 296 297 300 294 288 279 287 289 284
239 221 252 261 277 293 282 35 317 200 65 24 24 65 78 75 75 86 104 72 59 25 318 295 284 284 288 284 282 286 282 281 274 277 286 289 297 301 289 291 283 285 289 289
292 247 204 254 286 284 73 32 31 352 98 29 39 38 28 8 72 6 357 358 331 313 300 300 304 299 292 291 287 280 275 270 271 267 279 277 282 284 288 286 284 284 281 287
263 307 235 235 248 271 41 354 316 260 101 29 38 33 19 12 4 351 328 317 313 308 304 301 301 298 296 295 291 284 278 276 278 274 275 277 272 279 290 286 288 294 278 281
274 295 274 262 237 242 357 292 31 96 54 28 28 20 3 345 330 321 321 320 314 310 307 306 305 302 299 297 293 288 284 282 279 275 273 269 267 272 281 283 291 293 284 285
223 241 2 167 331 273 106 141 54 48 30 12 360 344 333 328 321 321 314 308 310 310 307 307 304 299 296 294 291 287 286 284 282 279 275 266 266 267 275 282 287 286 279 275
352 345 3 183 172 223 216 154 93 61 17 346 334 334 333 330 321 309 303 313 308 306 308 308 311 312 307 302 298 292 289 293 286 272 271 268 260 259 269 279 283 277 264 263
323 5 349 92 40 298 32 25 26 1 348 348 341 338 332 323 316 318 315 310 306 302 305 306 304 304 301 300 291 285 276 275 278 268 267 259 256 254 262 271 280 271 260 256
55 24 20 52 2 20 16 7 359 11 358 350 350 339 335 327 320 315 313 313 312 307 306 306 302 299 300 301 296 290 284 280 272 266 260 258 257 250 254 264 271 261 254 252
Height
1415 1417 1404 1377 1410 1409 1414 1407 1394 1385 1395 1398 1395 1377 1374 1377 1375 1371 1371 1374 1373 1374 1376 1378 1383 1386 1391 1397 1402 1407 1407 1410 1416 1423 1431 1438 1441 1449 1455 1459 1466 1471 1477 1485
1401 1382 1353 1391 1394 1400 1403 1401 1377 1387 1387 1388 1383 1364 1365 1366 1364 1364 1361 1362 1364 1365 1366 1368 1372 1379 1383 1389 1394 1400 1403 1405 1409 1415 1422 1429 1435 1441 1447 1452 1459 1465 1472 1478
1383 1370 1381 1380 1382 1390 1389 1389 1374 1382 1384 1379 1379 1359 1361 1357 1353 1352 1352 1348 1351 1354 1356 1359 1363 1367 1376 1379 1385 1393 1400 1400 1405 1410 1417 1425 1432 1438 1442 1443 1449 1457 1463 1469
1364 1356 1367 1367 1364 1369 1379 1366 1375 1376 1385 1384 1378 1366 1346 1343 1335 1332 1331 1331 1337 1339 1346 1350 1354 1358 1365 1376 1381 1387 1393 1399 1399 1404 1409 1414 1418 1426 1431 1433 1438 1446 1452 1459
1356 1360 1353 1354 1351 1354 1353 1362 1364 1366 1370 1376 1376 1385 1295 1331 1332 1326 1324 1323 1329 1329 1334 1338 1345 1351 1359 1368 1377 1380 1384 1390 1397 1399 1401 1407 1412 1418 1424 1429 1434 1438 1444 1450
1344 1349 1357 1357 1352 1351 1350 1362 1359 1364 1361 1367 1346 1371 1306 1332 1324 1324 1321 1324 1329 1332 1337 1340 1346 1353 1360 1366 1372 1376 1381 1385 1390 1395 1401 1400 1406 1410 1416 1421 1428 1433 1438 1444
1335 1332 1332 1349 1354 1349 1351 1362 1358 1358 1356 1348 1331 1355 1324 1306 1314 1313 1311 1326 1336 1339 1344 1349 1352 1359 1364 1368 1373 1376 1380 1385 1389 1392 1396 1394 1397 1402 1407 1413 1418 1425 1430 1434
1328 1329 1327 1325 1336 1340 1341 1347 1352 1338 1333 1332 1328 1334 1311 1311 1310 1310 1323 1333 1341 1345 1350 1355 1361 1363 1369 1372 1372 1376 1381 1385 1388 1392 1392 1391 1394 1398 1400 1404 1409 1414 1418 1424
1329 1326 1332 1331 1338 1336 1327 1335 1329 1341 1346 1345 1326 1307 1311 1310 1321 1322 1327 1340 1346 1353 1358 1364 1368 1368 1369 1375 1377 1377 1379 1381 1382 1383 1385 1387 1392 1394 1395 1399 1404 1406 1410 1415
1358 1344 1351 1347 1338 1336 1331 1326 1333 1329 1323 1330 1331 1315 1312 1321 1329 1341 1341 1346 1356 1362 1365 1372 1376 1376 1377 1377 1380 1380 1379 1380 1380 1381 1382 1385 1389 1387 1391 1395 1398 1400 1403 1407
1363 1358 1350 1345 1344 1345 1340 1338 1335 1335 1339 1321 1318 1327 1349 1337 1348 1356 1361 1366 1368 1370 1371 1376 1377 1379 1381 1383 1380 1381 1380 1379 1379 1381 1380 1380 1382 1386 1388 1391 1390 1393 1397 1399
1361 1359 1345 1331 1338 1340 1347 1347 1354 1336 1326 1343 1333 1354 1361 1354 1358 1360 1365 1376 1373 1376 1374 1379 1378 1379 1381 1383 1382 1381 1380 1381 1380 1380 1383 1383 1384 1384 1384 1384 1384 1387 1390 1392
1360 1348 1340 1330 1340 1342 1342 1349 1349 1347 1345 1344 1346 1352 1363 1366 1364 1367 1368 1376 1371 1373 1375 1373 1373 1378 1380 1382 1381 1378 1378 1379 1380 1379 1379 1381 1381 1382 1382 1383 1384 1385 1387 1388
1359 1365 1364 1354 1356 1356 1350 1346 1348 1352 1348 1343 1344 1356 1366 1367 1369 1370 1369 1370 1371 1372 1373 1370 1375 1379 1379 1381 1378 1377 1376 1377 1379 1380 1378 1377 1378 1379 1378 1379 1380 1381 1382 1382
1368 1368 1366 1359 1354 1350 1345 1342 1344 1347 1348 1343 1351 1353 1360 1364 1366 1363 1364 1368 1370 1371 1371 1371 1374 1377 1379 1382 1377 1378 1378 1377 1376 1376 1377 1376 1376 1376 1375 1375 1375 1374 1375 1376
1370 1373 1367 1358 1350 1345 1358 1345 1332 1337 1342 1343 1346 1349 1344 1351 1358 1360 1359 1363 1369 1369 1367 1369 1374 1375 1377 1381 1382 1377 1375 1375 1379 1378 1375 1372 1372 1372 1370 1371 1370 1370 1368 1369
1367 1369 1369 1360 1346 1354 1351 1343 1339 1334 1329 1335 1341 1339 1339 1344 1351 1353 1351 1357 1364 1366 1366 1369 1372 1374 1377 1378 1377 1373 1372 1372 1375 1375 1373 1371 1366 1366 1364 1365 1365 1363 1362 1363
1366 1371 1371 1368 1357 1361 1336 1332 1332 1333 1332 1331 1332 1333 1337 1348 1352 1355 1358 1364 1364 1365 1367 1370 1373 1375 1375 1374 1375 1372 1370 1368 1369 1368 1370 1367 1366 1363 1358 1360 1357 1357 1358 1357
1354 1360 1368 1368 1355 1340 1331 1342 1337 1336 1340 1340 1338 1344 1348 1351 1353 1357 1365 1364 1364 1365 1368 1371 1371 1370 1371 1372 1366 1367 1368 1364 1367 1364 1365 1362 1360 1358 1358 1351 1354 1349 1353 1351
1350 1351 1363 1362 1364 1351 1346 1342 1341 1339 1349 1352 1351 1353 1354 1354 1365 1368 1367 1364 1366 1367 1369 1368 1366 1367 1368 1362 1363 1362 1362 1361 1360 1359 1358 1356 1357 1354 1352 1347 1345 1347 1345 1346
1355 1357 1359 1360 1362 1348 1351 1351 1346 1349 1369 1358 1358 1359 1359 1359 1363 1366 1366 1366 1367 1367 1366 1366 1363 1361 1358 1356 1355 1354 1353 1352 1352 1349 1348 1348 1347 1347 1343 1339 1338 1341 1339 1337
1358 1362 1360 1357 1356 1359 1357 1351 1356 1362 1360 1360 1360 1361 1362 1363 1364 1364 1364 1365 1365 1362 1360 1357 1354 1352 1350 1348 1348 1345 1345 1344 1343 1342 1339 1338 1340 1337 1335 1332 1332 1329 1331 1327
1356 1356 1359 1367 1372 1366 1360 1363 1361 1361 1362 1362 1363 1363 1363 1364 1364 1364 1365 1363 1359 1358 1355 1352 1350 1346 1343 1342 1342 1340 1337 1335 1334 1331 1330 1329 1329 1329 1327 1326 1325 1320 1324 1324
1360 1363 1358 1359 1366 1367 1360 1358 1361 1363 1364 1365 1365 1364 1363 1363 1364 1363 1362 1360 1359 1355 1352 1349 1345 1340 1336 1334 1332 1330 1327 1327 1326 1323 1321 1320 1318 1319 1318 1317 1318 1314 1320 1319
1362 1361 1362 1363 1366 1369 1363 1363 1363 1364 1365 1365 1366 1365 1364 1363 1361 1359 1357 1356 1356 1353 1350 1346 1343 1338 1333 1329 1324 1319 1316 1314 1312 1310 1310 1310 1306 1307 1308 1309 1309 1311 1311 1314
1357 1360 1360 1365 1366 1364 1364 1365 1365 1365 1366 1366 1365 1364 1363 1361 1359 1357 1354 1352 1350 1348 1344 1340 1336 1330 1323 1317 1310 1305 1301 1298 1295 1294 1295 1296 1292 1294 1299 1301 1304 1306 1306 1308